[[{"header":{"parameterUnit":"m.s-1","parameterCategory":2,"la1":30.2991,"la2":30.254,"lo1":-89.0895,"lo2":-89.0444,"dy":0.0017,"dx":0.0017,"nx":28,"ny":28,"refTime":"2025-09-13T03:00:00:Z","depth":"0","parameterNumber":2,"parameterNumberName":"U-component_of_CURRENTS"},"data":[0,0,0,0,0,0,0,0,0,0,0,0,0,0,0,0,0,0,0,0,0,0,0,0,0,0,0,0,0,0,0,0,0,0,0,0,0,0,0,0,0,0,0,0,0,0,0,0,0,0,0,0,0,0,0,0,0,0,-0.292,-0.2919,0,-0.2853,-0.2853,-0.2852,-0.2925,-0.2927,-0.293,-0.2933,-0.2867,-0.2863,-0.2858,0,0,0,0,0,0,0,0,0,0,0,0,0,-0.3041,-0.3039,-0.292,-0.2919,-0.2918,-0.2853,-0.2853,-0.2852,-0.2924,-0.2928,-0.2931,-0.2934,-0.2868,-0.2863,-0.2858,0,0,0,0,0,0,0,0,0,0,0,0,0,-0.2984,-0.3038,-0.292,-0.2945,-0.2947,-0.2853,-0.2853,-0.2852,-0.2924,-0.2928,-0.2932,-0.2935,-0.287,-0.2864,-0.2857,-0.2739,0,0,-0.2838,-0.2835,0,0,0,0,0,0,0,0,-0.2987,-0.298,-0.2942,-0.2943,-0.2945,-0.29,-0.2871,-0.2813,-0.2923,-0.2934,-0.2933,-0.2937,-0.2874,-0.2867,-0.2848,-0.2736,-0.2733,-0.2838,-0.2834,-0.2831,-0.2829,0,0,0,0,0,0,0,-0.2991,-0.2983,-0.2895,-0.2941,-0.2942,-0.2936,-0.2933,-0.286,-0.2884,-0.2933,-0.2938,-0.2927,-0.2875,-0.2854,-0.2847,-0.2732,-0.2838,-0.2832,-0.2828,-0.2826,-0.2538,-0.2534,0,0,0,0,0,0,-0.2995,-0.2986,-0.2897,-0.2893,-0.2974,-0.2931,-0.2928,-0.2912,-0.2885,-0.2884,-0.2924,-0.293,-0.2863,-0.2855,-0.2845,-0.2736,-0.2831,-0.2825,-0.2822,-0.2542,-0.2537,-0.2533,0,0,0,0,0,0,-0.2998,-0.2987,-0.29,-0.2938,-0.2926,-0.2925,-0.2906,-0.2908,-0.2904,-0.2877,-0.2878,-0.292,-0.2866,-0.2854,-0.2781,-0.2733,-0.2822,-0.2817,-0.2546,-0.254,-0.2535,-0.2495,0,0,0,0,0,0,-0.3001,-0.2988,-0.2978,-0.2937,-0.2924,-0.2838,-0.2902,-0.2904,-0.2889,-0.2898,-0.2872,-0.287,-0.2868,-0.279,-0.2775,-0.2726,-0.2812,-0.2551,-0.2544,-0.2537,-0.2502,-0.2489,-0.2478,0,0,0,0,0,-0.3006,-0.2935,-0.2978,-0.2967,-0.291,-0.2836,-0.2827,-0.2842,-0.2885,-0.2858,-0.2849,-0.2872,-0.2734,-0.2782,-0.2764,-0.2713,-0.2555,-0.2546,-0.2537,-0.2507,-0.2491,-0.2479,0,0,0,0,0,0,-0.2953,-0.2935,-0.2981,-0.2906,-0.2888,-0.2848,-0.2811,-0.2832,-0.2801,-0.2817,-0.2818,-0.281,-0.2741,-0.2707,-0.2761,-0.2603,-0.2647,-0.2635,-0.263,-0.2615,-0.2603,-0.2592,-0.2806,0,0,0,0,0,-0.2946,-0.2904,-0.2898,-0.2837,-0.2833,-0.2833,-0.2808,-0.282,-0.2786,-0.2781,-0.2764,-0.2728,-0.2679,-0.2639,-0.2597,-0.2486,-0.2481,-0.2438,-0.2427,-0.2417,-0.2391,-0.2359,-0.2344,-0.2504,-0.2505,-0.2505,0,0,-0.2907,-0.2889,-0.2867,-0.2826,-0.2818,-0.2764,-0.2827,-0.2776,-0.273,-0.2769,-0.2696,-0.2696,-0.2646,-0.2556,-0.2516,-0.2525,-0.2364,-0.2406,-0.2399,-0.2378,-0.2349,-0.2334,-0.2321,-0.2499,-0.25,-0.2501,0,0,-0.2769,-0.2801,-0.2724,-0.2712,-0.2694,-0.2697,-0.2687,-0.2662,-0.2665,-0.2593,-0.2621,-0.258,-0.2492,-0.2449,-0.2415,-0.2291,-0.2324,-0.2283,-0.2191,-0.2161,-0.2149,-0.2138,-0.211,-0.2097,-0.2254,-0.2254,-0.2254,0,-0.2724,-0.2646,-0.2684,-0.2612,-0.2597,-0.2667,-0.2594,-0.2578,-0.2531,-0.2522,-0.2564,-0.2465,-0.2433,-0.2321,-0.2285,-0.2266,-0.2267,-0.2264,-0.2151,-0.2141,-0.213,-0.2104,-0.209,-0.2251,-0.2252,-0.2252,-0.2252,0,-0.2534,-0.25,-0.2445,-0.2409,-0.2394,-0.2335,-0.2356,-0.2345,-0.2382,-0.238,-0.2324,-0.2295,-0.2242,-0.2217,-0.2208,-0.2104,-0.2135,-0.217,-0.2205,-0.2113,-0.2089,-0.2076,-0.2247,-0.2248,-0.2249,-0.225,0,0,-0.2332,-0.2324,-0.2299,-0.2315,-0.2299,-0.2275,-0.2216,-0.2193,-0.2189,-0.2165,-0.2132,-0.2042,-0.2087,-0.2046,-0.2045,-0.1993,-0.1921,-0.2039,-0.2039,-0.204,-0.1863,-0.177,-0.1748,-0.1963,-0.196,-0.1958,-0.1877,0,-0.2174,-0.2063,-0.2076,-0.1999,-0.1979,-0.2052,-0.2008,-0.2011,-0.204,-0.2028,-0.2018,-0.199,-0.2003,-0.2004,-0.1948,-0.1955,-0.1883,-0.1939,-0.1924,-0.1922,-0.1876,-0.1727,-0.1608,-0.1515,-0.1864,-0.1862,-0.1861,0,-0.1963,-0.1944,-0.1853,-0.1901,-0.1895,-0.1856,-0.189,-0.1858,-0.1868,-0.1895,-0.1877,-0.1911,-0.1829,-0.1878,-0.1794,-0.1844,-0.1822,-0.1818,-0.1817,-0.173,-0.1802,-0.1658,-0.1479,-0.1478,-0.1841,-0.1842,-0.1844,0,-0.1847,-0.1787,-0.1745,-0.1745,-0.1781,-0.1768,-0.1788,-0.181,-0.1816,-0.182,-0.1841,-0.1792,-0.1781,-0.1749,-0.1732,-0.1774,-0.1661,-0.1729,-0.1607,-0.1603,-0.1488,-0.1476,-0.1323,-0.1628,-0.1628,-0.1628,-0.1629,0,-0.1685,-0.1648,-0.1704,-0.1685,-0.1663,-0.1713,-0.1695,-0.1719,-0.1745,-0.1727,-0.1773,-0.1739,-0.1754,-0.1711,-0.1697,-0.159,-0.1626,-0.1538,-0.1548,-0.1467,-0.1455,-0.1442,-0.1493,-0.1625,-0.1626,-0.1627,-0.1627,0,-0.1558,-0.1581,-0.1559,-0.16,-0.1612,-0.1605,-0.1655,-0.1652,-0.1695,-0.1673,-0.1673,-0.1688,-0.1618,-0.1614,-0.1554,-0.1527,-0.1415,-0.1406,-0.1303,-0.1299,-0.1182,-0.1235,-0.1096,-0.107,-0.1253,-0.1249,-0.1247,0,-0.1484,-0.146,-0.1504,-0.1501,-0.1513,-0.1527,-0.1534,-0.1603,-0.1612,-0.1614,-0.1591,-0.154,-0.1429,-0.1323,-0.1274,-0.1191,-0.1257,-0.1067,-0.1089,-0.1091,-0.1161,-0.1232,-0.1228,-0.0935,-0.093,-0.0926,-0.0923,0,-0.1361,-0.1385,-0.1385,-0.1388,-0.1394,-0.1415,-0.1439,-0.1436,-0.149,-0.1431,-0.132,-0.122,-0.1134,-0.0966,-0.0917,-0.0889,-0.103,-0.0977,-0.0999,-0.0874,-0.0918,-0.0928,-0.11,-0.0886,-0.089,-0.0892,-0.0894,-0.0896,-0.1273,-0.1254,-0.1265,-0.1259,-0.1275,-0.1275,-0.1214,-0.1215,-0.1141,-0.0984,-0.1,-0.075,-0.0676,-0.0554,-0.0588,-0.0598,-0.0716,-0.0599,-0.0659,-0.0728,-0.0687,-0.0759,-0.055,-0.0552,-0.0553,-0.0555,-0.0556,0,-0.1153,-0.1145,-0.1135,-0.113,-0.1109,-0.115,-0.1119,-0.1008,-0.0805,-0.0668,-0.0457,-0.0198,-0.0106,-0.018,-0.0242,-0.0283,-0.035,-0.0339,-0.042,-0.0431,-0.0483,-0.0452,-0.0185,-0.0185,-0.0185,-0.0185,-0.0185,-0.0185,-0.1085,-0.1032,-0.1034,-0.0963,-0.095,-0.0831,-0.0757,-0.0573,-0.0436,-0.0089,0.0121,0.0226,0.0155,0.0041,-0.0119,-0.0169,-0.0255,-0.0231,-0.0333,-0.0391,-0.0422,-0.0451,-0.043,-0.0163,-0.0163,-0.0227,-0.0228,-0.0228]},{"header":{"parameterUnit":"m.s-1","parameterCategory":2,"la1":30.2991,"la2":30.254,"lo1":-89.0895,"lo2":-89.0444,"dy":0.0017,"dx":0.0017,"nx":28,"ny":28,"refTime":"2025-09-13T03:00:00:Z","depth":"0","parameterNumber":3,"parameterNumberName":"V-component_of_CURRENTS"},"data":[0,0,0,0,0,0,0,0,0,0,0,0,0,0,0,0,0,0,0,0,0,0,0,0,0,0,0,0,0,0,0,0,0,0,0,0,0,0,0,0,0,0,0,0,0,0,0,0,0,0,0,0,0,0,0,0,0,0,0.003,0.0032,0,0.02,0.0202,0.0204,0.0417,0.042,0.0423,0.0426,0.059,0.0592,0.0594,0,0,0,0,0,0,0,0,0,0,0,0,0,-0.0097,-0.0096,0.003,0.0032,0.0034,0.0199,0.0202,0.0205,0.0417,0.042,0.0424,0.0427,0.059,0.0592,0.0594,0,0,0,0,0,0,0,0,0,0,0,0,0,0.0009,-0.0095,0.003,0.0155,0.0167,0.0199,0.0202,0.0206,0.0416,0.042,0.0424,0.0428,0.0589,0.0592,0.0594,0.0523,0,0,0.0602,0.0603,0,0,0,0,0,0,0,0,0.0002,0.0014,0.0135,0.0146,0.016,0.0287,0.0218,0.031,0.0415,0.0327,0.0426,0.0431,0.0481,0.0493,0.0523,0.0531,0.0538,0.0602,0.0604,0.0605,0.0605,0,0,0,0,0,0,0,-0.0005,0.0008,0.0103,0.0136,0.0152,0.0206,0.0227,0.0237,0.0382,0.0335,0.035,0.0358,0.049,0.052,0.0529,0.0541,0.0602,0.0604,0.0606,0.0607,0.0595,0.0593,0,0,0,0,0,0,-0.0043,0.0,0.0098,0.0108,0.0084,0.0205,0.0228,0.0246,0.0383,0.0406,0.0354,0.0367,0.0514,0.0525,0.0535,0.0537,0.0605,0.0607,0.0609,0.0597,0.0595,0.0593,0,0,0,0,0,0,-0.0046,-0.0036,0.0091,0.0053,0.0073,0.0202,0.0221,0.0247,0.0289,0.0396,0.0422,0.037,0.0518,0.0532,0.0553,0.0542,0.0608,0.0611,0.0599,0.0596,0.0594,0.049,0,0,0,0,0,0,-0.005,-0.0038,-0.0039,0.005,0.0073,0.011,0.0217,0.0247,0.0284,0.0303,0.0416,0.0437,0.0522,0.0549,0.0556,0.0547,0.0613,0.0601,0.0598,0.0595,0.0496,0.0484,0.0474,0,0,0,0,0,-0.0055,-0.0083,-0.004,-0.0028,0.0068,0.0107,0.0124,0.0234,0.0279,0.0289,0.0365,0.0434,0.0533,0.0548,0.0557,0.0549,0.0603,0.0599,0.0595,0.0501,0.0486,0.0474,0,0,0,0,0,0,-0.0146,-0.0063,-0.0012,-0.0013,0.0044,0.0142,0.0146,0.0207,0.0272,0.0288,0.0397,0.042,0.0453,0.0486,0.05,0.0533,0.0582,0.0579,0.0508,0.0495,0.0484,0.0459,0.0615,0,0,0,0,0,-0.0172,-0.0164,-0.0077,-0.0083,-0.0062,0.0032,0.0058,0.0128,0.0193,0.023,0.0306,0.0375,0.0434,0.0453,0.0514,0.0493,0.0531,0.0496,0.0485,0.0475,0.0459,0.0488,0.0478,0.0579,0.0579,0.0579,0,0,-0.0214,-0.0169,-0.0164,-0.0102,-0.0052,-0.0024,0.0061,0.0084,0.0115,0.0225,0.0271,0.0341,0.0423,0.045,0.0463,0.0477,0.0466,0.047,0.0462,0.045,0.0483,0.0473,0.0465,0.0576,0.0577,0.0577,0,0,-0.0285,-0.0254,-0.0252,-0.0214,-0.0151,-0.0095,-0.0099,-0.001,0.0041,0.0071,0.0178,0.0219,0.0293,0.036,0.0399,0.0338,0.0421,0.0364,0.0274,0.0302,0.0294,0.0288,0.0325,0.0323,0.0342,0.0341,0.0341,0,-0.0334,-0.0306,-0.0254,-0.0237,-0.0215,-0.0135,-0.0125,-0.0081,0.0006,0.0028,0.0073,0.019,0.0253,0.0293,0.0291,0.0315,0.035,0.0323,0.0288,0.0283,0.0278,0.0318,0.0317,0.0336,0.0337,0.0337,0.0338,0,-0.037,-0.0355,-0.0368,-0.0306,-0.0286,-0.028,-0.0209,-0.0187,-0.0134,-0.0073,-0.0024,0.0059,0.0133,0.0154,0.0207,0.0206,0.0249,0.0287,0.0323,0.0262,0.0308,0.0309,0.0328,0.033,0.0332,0.0333,0,0,-0.0443,-0.0397,-0.0395,-0.0376,-0.0319,-0.0305,-0.0294,-0.0244,-0.0226,-0.0164,-0.0134,-0.006,-0.0011,0.0032,0.0101,0.0104,0.0102,0.0165,0.0169,0.0204,0.0174,0.0219,0.0225,0.0141,0.014,0.014,0.0221,0,-0.0472,-0.0468,-0.0431,-0.0431,-0.0422,-0.0368,-0.0359,-0.0316,-0.0265,-0.0224,-0.0164,-0.0103,-0.0057,-0.0019,-0.0011,0.0099,0.0099,0.0077,0.0225,0.0229,0.0279,0.0225,0.0271,0.0347,0.0222,0.0222,0.0222,0,-0.0483,-0.0483,-0.0491,-0.0475,-0.0466,-0.046,-0.043,-0.0408,-0.035,-0.031,-0.0265,-0.019,-0.0153,-0.011,-0.0011,-0.002,0.0051,0.0113,0.0119,0.0195,0.0275,0.0388,0.0355,0.0426,0.0224,0.0224,0.0224,0,-0.0528,-0.0517,-0.0531,-0.0523,-0.0497,-0.0498,-0.0482,-0.0436,-0.0414,-0.0361,-0.0329,-0.0267,-0.0205,-0.0138,-0.0003,-0.0005,0.0112,0.0138,0.0237,0.0242,0.0325,0.0338,0.0379,0.0175,0.0175,0.0174,0.0174,0,-0.0554,-0.0562,-0.0555,-0.056,-0.0581,-0.0545,-0.055,-0.0521,-0.0474,-0.0419,-0.0375,-0.0304,-0.021,-0.0113,-0.0024,0.0119,0.0102,0.0208,0.0257,0.029,0.0299,0.0402,0.042,0.0178,0.0177,0.0176,0.0176,0,-0.0586,-0.0578,-0.0596,-0.0596,-0.0598,-0.0612,-0.0593,-0.0585,-0.0537,-0.0462,-0.0443,-0.033,-0.0191,-0.0096,0.0051,0.012,0.0292,0.0286,0.0321,0.0371,0.0507,0.0517,0.0587,0.0667,0.0389,0.0391,0.0392,0,-0.0596,-0.061,-0.0634,-0.065,-0.065,-0.0663,-0.0664,-0.0624,-0.0581,-0.0439,-0.0387,-0.0261,-0.0081,0.0111,0.02,0.0335,0.0386,0.045,0.0435,0.0503,0.0551,0.0542,0.0604,0.0513,0.0515,0.0516,0.0518,0,-0.0623,-0.0634,-0.0654,-0.0693,-0.0707,-0.0707,-0.068,-0.0626,-0.0519,-0.0388,-0.0142,0.0012,0.0141,0.033,0.0414,0.0485,0.0508,0.0489,0.0554,0.063,0.0629,0.0735,0.0476,0.0533,0.0532,0.053,0.053,0.0529,-0.0641,-0.0669,-0.0695,-0.0727,-0.0742,-0.0682,-0.0586,-0.0483,-0.0302,0.0028,0.0117,0.0451,0.0519,0.0655,0.0658,0.0686,0.065,0.0744,0.0747,0.0728,0.0802,0.057,0.0684,0.0683,0.0683,0.0682,0.0682,0,-0.0653,-0.0682,-0.0721,-0.0715,-0.069,-0.069,-0.0546,-0.0366,-0.003,0.0266,0.0597,0.0956,0.1019,0.0977,0.0935,0.096,0.0952,0.098,0.0978,0.103,0.0832,0.0835,0.0993,0.0993,0.0993,0.0993,0.0993,0.0993,-0.0659,-0.0696,-0.0718,-0.0663,-0.0619,-0.044,-0.029,-0.0006,0.0259,0.0813,0.1156,0.1381,0.1376,0.1218,0.1163,0.1159,0.1239,0.1191,0.1245,0.1099,0.1077,0.1056,0.1063,0.1267,0.1267,0.1466,0.1467,0.1469]}],[{"header":{"parameterUnit":"m.s-1","parameterCategory":2,"la1":30.2991,"la2":30.254,"lo1":-89.0895,"lo2":-89.0444,"dy":0.0017,"dx":0.0017,"nx":28,"ny":28,"refTime":"2025-09-13T03:00:00:Z","depth":"2","parameterNumber":2,"parameterNumberName":"U-component_of_CURRENTS"},"data":[0,0,0,0,0,0,0,0,0,0,0,0,0,0,0,0,0,0,0,0,0,0,0,0,0,0,0,0,0,0,0,0,0,0,0,0,0,0,0,0,0,0,0,0,0,0,0,0,0,0,0,0,0,0,0,0,0,0,-0.1901,-0.1902,0,-0.1953,-0.1953,-0.1954,-0.1925,-0.1924,-0.1923,-0.1921,-0.1941,-0.1943,-0.1944,0,0,0,0,0,0,0,0,0,0,0,0,0,-0.1816,-0.1817,-0.1901,-0.1902,-0.1903,-0.1953,-0.1953,-0.1954,-0.1925,-0.1924,-0.1922,-0.1921,-0.1941,-0.1943,-0.1944,0,0,0,0,0,0,0,0,0,0,0,0,0,-0.1855,-0.1817,-0.1901,-0.1897,-0.1898,-0.1953,-0.1953,-0.1954,-0.1925,-0.1924,-0.1922,-0.192,-0.194,-0.1942,-0.1945,-0.1992,0,0,-0.1952,-0.1953,0,0,0,0,0,0,0,0,-0.1853,-0.1858,-0.1897,-0.1898,-0.1898,-0.1934,-0.1931,-0.1966,-0.1926,-0.1911,-0.1921,-0.192,-0.1939,-0.1942,-0.195,-0.1993,-0.1994,-0.1952,-0.1953,-0.1954,-0.1955,0,0,0,0,0,0,0,-0.185,-0.1856,-0.1918,-0.1898,-0.1899,-0.1907,-0.191,-0.1937,-0.193,-0.1912,-0.1911,-0.1923,-0.1939,-0.1948,-0.1951,-0.1994,-0.1952,-0.1954,-0.1956,-0.1956,-0.1998,-0.1998,0,0,0,0,0,0,-0.1851,-0.1853,-0.1916,-0.192,-0.1875,-0.191,-0.1913,-0.1921,-0.1931,-0.1932,-0.1925,-0.1922,-0.1945,-0.1948,-0.1951,-0.1936,-0.1954,-0.1957,-0.1958,-0.1998,-0.1998,-0.1998,0,0,0,0,0,0,-0.1849,-0.1856,-0.1914,-0.189,-0.1899,-0.1913,-0.1922,-0.1923,-0.1934,-0.1941,-0.1941,-0.1935,-0.1944,-0.1948,-0.1955,-0.1939,-0.1958,-0.196,-0.1999,-0.1998,-0.1998,-0.1951,0,0,0,0,0,0,-0.1846,-0.1855,-0.1859,-0.1891,-0.19,-0.1928,-0.1925,-0.1925,-0.1946,-0.1942,-0.1951,-0.195,-0.1943,-0.1951,-0.1957,-0.1942,-0.1962,-0.1999,-0.1999,-0.1998,-0.1953,-0.1949,-0.1946,0,0,0,0,0,-0.1843,-0.1857,-0.1859,-0.1867,-0.1906,-0.1928,-0.1933,-0.1935,-0.1948,-0.1942,-0.1945,-0.195,-0.1951,-0.1953,-0.196,-0.1946,-0.1999,-0.1999,-0.1998,-0.1955,-0.195,-0.1946,0,0,0,0,0,0,-0.1819,-0.1857,-0.1859,-0.1883,-0.1895,-0.1924,-0.1932,-0.1947,-0.1951,-0.1955,-0.1957,-0.1956,-0.1947,-0.1966,-0.1968,-0.1956,-0.1974,-0.1974,-0.1938,-0.1934,-0.193,-0.1922,-0.1964,0,0,0,0,0,-0.182,-0.1841,-0.1866,-0.1883,-0.1892,-0.1918,-0.1932,-0.1939,-0.1953,-0.1954,-0.1961,-0.1966,-0.1955,-0.1959,-0.1956,-0.1971,-0.1965,-0.1964,-0.196,-0.1957,-0.1955,-0.1931,-0.1924,-0.1996,-0.1996,-0.1996,0,0,-0.1814,-0.1842,-0.1851,-0.188,-0.1895,-0.1899,-0.192,-0.1945,-0.1944,-0.1959,-0.196,-0.1957,-0.1954,-0.1941,-0.1941,-0.1955,-0.1931,-0.1956,-0.1953,-0.1953,-0.1929,-0.1922,-0.1916,-0.1995,-0.1995,-0.1995,0,0,-0.1809,-0.1839,-0.1844,-0.1857,-0.1887,-0.1902,-0.1911,-0.1942,-0.1944,-0.1959,-0.1947,-0.1935,-0.1955,-0.1924,-0.1917,-0.1905,-0.1907,-0.1911,-0.1894,-0.187,-0.1863,-0.1858,-0.1827,-0.182,-0.1916,-0.1916,-0.1916,0,-0.1805,-0.1808,-0.1846,-0.1851,-0.186,-0.19,-0.1896,-0.1912,-0.1938,-0.1938,-0.1951,-0.194,-0.1938,-0.1898,-0.188,-0.1893,-0.1884,-0.1907,-0.1863,-0.1858,-0.1853,-0.1823,-0.1815,-0.1914,-0.1914,-0.1914,-0.1914,0,-0.1783,-0.1793,-0.1801,-0.1814,-0.1828,-0.184,-0.1864,-0.1879,-0.1905,-0.1914,-0.19,-0.1895,-0.1884,-0.1877,-0.1875,-0.1833,-0.1838,-0.1853,-0.187,-0.1842,-0.1813,-0.1806,-0.191,-0.1911,-0.1912,-0.1913,0,0,-0.1749,-0.178,-0.1777,-0.178,-0.1812,-0.1825,-0.1831,-0.1837,-0.1843,-0.186,-0.185,-0.1823,-0.1832,-0.1824,-0.1818,-0.18,-0.1746,-0.1814,-0.1814,-0.1776,-0.1688,-0.1597,-0.158,-0.1756,-0.1755,-0.1754,-0.1677,0,-0.1712,-0.1712,-0.1735,-0.173,-0.1731,-0.1772,-0.1774,-0.1793,-0.1814,-0.1818,-0.1813,-0.1802,-0.1809,-0.1804,-0.1781,-0.1762,-0.1726,-0.1765,-0.1728,-0.1727,-0.1642,-0.1568,-0.1448,-0.1361,-0.167,-0.1668,-0.1667,0,-0.1657,-0.1673,-0.166,-0.1696,-0.1699,-0.1702,-0.1723,-0.1734,-0.175,-0.1768,-0.1762,-0.1771,-0.1738,-0.1757,-0.1699,-0.1727,-0.1697,-0.1683,-0.168,-0.1606,-0.162,-0.1443,-0.1336,-0.1654,-0.1656,-0.1656,-0.1657,0,-0.1592,-0.1616,-0.1606,-0.1615,-0.1657,-0.166,-0.1682,-0.1708,-0.172,-0.1733,-0.1741,-0.1721,-0.1709,-0.1681,-0.1651,-0.1677,-0.1587,-0.1622,-0.1503,-0.1497,-0.1392,-0.1378,-0.1559,-0.1559,-0.1559,-0.1559,-0.1559,0,-0.1533,-0.1525,-0.1578,-0.1572,-0.1573,-0.1621,-0.1622,-0.1648,-0.1676,-0.1664,-0.1707,-0.168,-0.1691,-0.165,-0.1629,-0.1526,-0.1564,-0.1471,-0.1458,-0.1371,-0.1356,-0.1621,-0.1629,-0.1556,-0.1557,-0.1557,-0.1558,0,-0.1446,-0.1478,-0.1478,-0.1525,-0.1538,-0.1538,-0.1589,-0.1589,-0.1635,-0.1618,-0.162,-0.1639,-0.1573,-0.1563,-0.1506,-0.1475,-0.1408,-0.1358,-0.1249,-0.1223,-0.1343,-0.135,-0.122,-0.1216,-0.1213,-0.121,-0.1207,0,-0.1393,-0.1385,-0.1432,-0.1432,-0.1447,-0.1468,-0.1476,-0.1546,-0.1547,-0.1568,-0.154,-0.1504,-0.1435,-0.1334,-0.1252,-0.1166,-0.1269,-0.1037,-0.1053,-0.13,-0.1302,-0.1315,-0.1326,-0.0899,-0.0895,-0.0891,-0.0888,0,-0.1297,-0.1319,-0.1325,-0.133,-0.1338,-0.1353,-0.1371,-0.137,-0.1424,-0.1424,-0.1379,-0.1335,-0.1217,-0.1063,-0.0966,-0.0916,-0.1048,-0.0952,-0.1217,-0.1003,-0.099,-0.0996,-0.1019,-0.0853,-0.0856,-0.0859,-0.0861,-0.0862,-0.1219,-0.1203,-0.1215,-0.1211,-0.1224,-0.1207,-0.1171,-0.1197,-0.1182,-0.1135,-0.1177,-0.1072,-0.1034,-0.0794,-0.0718,-0.0659,-0.0745,-0.0745,-0.076,-0.0779,-0.0755,-0.0736,-0.0546,-0.0547,-0.0549,-0.055,-0.0551,0,-0.1111,-0.1103,-0.1093,-0.1072,-0.1031,-0.1086,-0.1071,-0.1014,-0.0946,-0.0927,-0.0882,-0.0744,-0.062,-0.0586,-0.041,-0.038,-0.0413,-0.039,-0.0444,-0.0476,-0.0505,-0.0472,-0.0186,-0.0185,-0.0185,-0.0184,0,0,-0.1049,-0.0999,-0.0997,-0.0887,-0.0867,-0.0778,-0.0744,-0.0693,-0.0658,-0.057,-0.0517,-0.0558,-0.0544,-0.0376,-0.0323,-0.0219,-0.0354,-0.02,-0.0484,-0.0577,-0.0606,-0.0688,-0.0669,0,0,0,0,0]},{"header":{"parameterUnit":"m.s-1","parameterCategory":2,"la1":30.2991,"la2":30.254,"lo1":-89.0895,"lo2":-89.0444,"dy":0.0017,"dx":0.0017,"nx":28,"ny":28,"refTime":"2025-09-13T03:00:00:Z","depth":"2","parameterNumber":3,"parameterNumberName":"V-component_of_CURRENTS"},"data":[0,0,0,0,0,0,0,0,0,0,0,0,0,0,0,0,0,0,0,0,0,0,0,0,0,0,0,0,0,0,0,0,0,0,0,0,0,0,0,0,0,0,0,0,0,0,0,0,0,0,0,0,0,0,0,0,0,0,-0.0343,-0.0342,0,-0.0268,-0.0267,-0.0267,-0.0265,-0.0265,-0.0266,-0.0267,-0.0165,-0.0162,-0.0158,0,0,0,0,0,0,0,0,0,0,0,0,0,-0.043,-0.0429,-0.0343,-0.0342,-0.0341,-0.0268,-0.0267,-0.0267,-0.0265,-0.0265,-0.0266,-0.0267,-0.0166,-0.0162,-0.0158,0,0,0,0,0,0,0,0,0,0,0,0,0,-0.038,-0.0428,-0.0343,-0.0329,-0.0326,-0.0268,-0.0267,-0.0266,-0.0264,-0.0265,-0.0266,-0.0267,-0.0167,-0.0162,-0.0158,-0.0108,0,0,-0.0142,-0.014,0,0,0,0,0,0,0,0,-0.0383,-0.0377,-0.0332,-0.033,-0.0327,-0.0274,-0.026,-0.0211,-0.0264,-0.0291,-0.0267,-0.0268,-0.0196,-0.0189,-0.0177,-0.0103,-0.0099,-0.0142,-0.0139,-0.0137,-0.0136,0,0,0,0,0,0,0,-0.0387,-0.038,-0.0317,-0.0331,-0.0327,-0.0306,-0.0301,-0.0251,-0.0241,-0.0289,-0.0288,-0.0274,-0.0195,-0.0182,-0.0175,-0.0097,-0.0142,-0.0138,-0.0135,-0.0133,0.0019,0.002,0,0,0,0,0,0,-0.0391,-0.0384,-0.0319,-0.0314,-0.0354,-0.0304,-0.0299,-0.0293,-0.0242,-0.0235,-0.0273,-0.0274,-0.019,-0.0181,-0.0171,-0.0129,-0.0137,-0.0132,-0.0129,0.0018,0.0019,0.002,0,0,0,0,0,0,-0.0393,-0.0386,-0.0322,-0.0344,-0.0334,-0.0302,-0.0295,-0.029,-0.0279,-0.023,-0.0223,-0.0266,-0.0191,-0.0178,-0.0139,-0.0125,-0.013,-0.0126,0.0017,0.0018,0.002,-0.0033,0,0,0,0,0,0,-0.0396,-0.0388,-0.0389,-0.0345,-0.0333,-0.0296,-0.0293,-0.0288,-0.0267,-0.0268,-0.0221,-0.0213,-0.019,-0.0147,-0.0134,-0.0118,-0.0122,0.0015,0.0017,0.0019,-0.0032,-0.0033,-0.0034,0,0,0,0,0,-0.04,-0.0394,-0.039,-0.0382,-0.0335,-0.0296,-0.0289,-0.027,-0.0266,-0.0263,-0.0236,-0.0214,-0.0124,-0.0142,-0.0127,-0.011,0.0014,0.0017,0.0019,-0.0032,-0.0033,-0.0034,0,0,0,0,0,0,-0.0426,-0.0391,-0.0386,-0.0369,-0.034,-0.0295,-0.0283,-0.0267,-0.0242,-0.0242,-0.0204,-0.0194,-0.0156,-0.0118,-0.0138,-0.0058,-0.0049,-0.0043,-0.0092,-0.0093,-0.0093,-0.0101,-0.0118,0,0,0,0,0,-0.0432,-0.0424,-0.0384,-0.0371,-0.0356,-0.0319,-0.0301,-0.0287,-0.0254,-0.0245,-0.0209,-0.0167,-0.0131,-0.0104,-0.0068,-0.0017,0.001,0.0008,0.0007,0.0006,0.0011,0.0048,0.005,0.0028,0.0028,0.0028,0,0,-0.0438,-0.0416,-0.0412,-0.0377,-0.0351,-0.033,-0.0312,-0.0283,-0.0267,-0.0234,-0.0201,-0.0172,-0.0121,-0.0081,-0.0057,-0.0048,0.0028,0.0009,0.0007,0.0014,0.0051,0.0052,0.0054,0.003,0.0029,0.0029,0,0,-0.0439,-0.0426,-0.0419,-0.0397,-0.0359,-0.0335,-0.0328,-0.0283,-0.0268,-0.0229,-0.0208,-0.017,-0.0104,-0.0071,-0.0044,-0.0016,0.0014,0.0,-0.0,0.0035,0.0036,0.0038,0.0071,0.0076,0.0009,0.0009,0.0009,0,-0.0449,-0.0435,-0.0409,-0.0393,-0.0377,-0.034,-0.0327,-0.0298,-0.0248,-0.0232,-0.0225,-0.0139,-0.0097,-0.0049,-0.0043,-0.0018,0.0001,-0.0009,0.0031,0.0033,0.0035,0.0069,0.0075,0.0007,0.0007,0.0007,0.0008,0,-0.0442,-0.0434,-0.0423,-0.0398,-0.0379,-0.0359,-0.0319,-0.0296,-0.0271,-0.0241,-0.0195,-0.0143,-0.0093,-0.0069,-0.0046,-0.0002,0.0005,0.0012,0.0023,0.0034,0.0069,0.0077,0.0004,0.0005,0.0005,0.0006,0,0,-0.0459,-0.0428,-0.0426,-0.0426,-0.0384,-0.0369,-0.0337,-0.0302,-0.0285,-0.0234,-0.0208,-0.0138,-0.0115,-0.0082,-0.0046,-0.0004,0.0032,0.001,0.0013,0.0026,0.0102,0.012,0.013,0.0034,0.0035,0.0036,0.0117,0,-0.0464,-0.0455,-0.0431,-0.0423,-0.0417,-0.0381,-0.0359,-0.0323,-0.0285,-0.0249,-0.0189,-0.0151,-0.0118,-0.0099,-0.0053,0.0007,0.0049,0.0009,0.0106,0.0109,0.0109,0.0139,0.0123,0.0195,0.0125,0.0126,0.0127,0,-0.0465,-0.0463,-0.0462,-0.045,-0.0443,-0.0432,-0.0403,-0.0376,-0.0315,-0.0286,-0.0235,-0.0192,-0.012,-0.0099,0.0013,-0.002,0.004,0.009,0.0094,0.0135,0.0141,0.0177,0.0211,0.0139,0.0138,0.0137,0.0137,0,-0.0501,-0.0485,-0.0494,-0.0487,-0.0462,-0.0458,-0.0442,-0.0392,-0.037,-0.0311,-0.0287,-0.0208,-0.0159,-0.0082,0.0029,0.0016,0.0149,0.0145,0.0221,0.0222,0.0244,0.0246,0.0226,0.0226,0.0226,0.0226,0.0226,0,-0.0518,-0.0523,-0.0515,-0.052,-0.0534,-0.05,-0.0496,-0.0465,-0.0415,-0.038,-0.0315,-0.0262,-0.0152,-0.0061,0.0023,0.015,0.0148,0.0231,0.025,0.0227,0.0226,0.0206,0.0203,0.0229,0.0228,0.0228,0.0227,0,-0.0549,-0.0541,-0.0555,-0.055,-0.0551,-0.0562,-0.0541,-0.0531,-0.0478,-0.0429,-0.0412,-0.0296,-0.017,-0.0058,0.0087,0.0153,0.0263,0.0308,0.0274,0.0287,0.0311,0.0305,0.0395,0.0396,0.0397,0.0398,0.0399,0,-0.0561,-0.0573,-0.0591,-0.0607,-0.0606,-0.0615,-0.0616,-0.0572,-0.0546,-0.0437,-0.0409,-0.028,-0.0176,0.0034,0.0176,0.0322,0.0318,0.0385,0.0366,0.0323,0.0331,0.0323,0.0314,0.0375,0.0376,0.0376,0.0377,0,-0.0588,-0.0598,-0.0615,-0.0652,-0.0668,-0.0678,-0.0666,-0.0661,-0.0584,-0.0536,-0.0431,-0.0343,-0.0111,0.006,0.0254,0.0338,0.0355,0.0399,0.0377,0.033,0.031,0.0316,0.0308,0.0381,0.0381,0.038,0.038,0.038,-0.0608,-0.0635,-0.066,-0.0692,-0.0714,-0.0725,-0.0728,-0.0695,-0.0661,-0.0551,-0.0469,-0.0307,-0.0131,0.0158,0.0287,0.042,0.0424,0.0443,0.0439,0.0436,0.0414,0.0397,0.048,0.048,0.048,0.048,0.048,0,-0.0625,-0.0654,-0.0692,-0.0729,-0.0755,-0.0752,-0.0743,-0.0715,-0.0672,-0.0552,-0.0455,-0.0258,-0.0061,0.0141,0.036,0.0464,0.0447,0.0473,0.0428,0.0424,0.0421,0.0395,0.0458,0.0458,0.0458,0.0458,0,0,-0.0634,-0.0673,-0.0695,-0.0745,-0.0771,-0.0776,-0.0769,-0.0716,-0.0623,-0.0506,-0.0376,-0.0257,-0.0015,0.0111,0.025,0.0374,0.0365,0.0378,0.0388,0.0315,0.031,0.0401,0.0358,0,0,0,0,0]}],[{"header":{"parameterUnit":"m.s-1","parameterCategory":2,"la1":30.2991,"la2":30.254,"lo1":-89.0895,"lo2":-89.0444,"dy":0.0017,"dx":0.0017,"nx":28,"ny":28,"refTime":"2025-09-13T03:00:00:Z","depth":"4","parameterNumber":2,"parameterNumberName":"U-component_of_CURRENTS"},"data":[0,0,0,0,0,0,0,0,0,0,0,0,0,0,0,0,0,0,0,0,0,0,0,0,0,0,0,0,0,0,0,0,0,0,0,0,0,0,0,0,0,0,0,0,0,0,0,0,0,0,0,0,0,0,0,0,0,0,-0.1114,-0.1115,0,-0.1159,-0.1159,-0.116,-0.117,-0.117,-0.117,-0.117,-0.1227,-0.1229,-0.123,0,0,0,0,0,0,0,0,0,0,0,0,0,-0.1031,-0.1032,-0.1114,-0.1115,-0.1116,-0.1159,-0.1159,-0.116,-0.117,-0.117,-0.117,-0.117,-0.1227,-0.1229,-0.123,0,0,0,0,0,0,0,0,0,0,0,0,0,-0.1068,-0.1033,-0.1114,-0.1128,-0.113,-0.1159,-0.1159,-0.116,-0.117,-0.117,-0.117,-0.117,-0.1226,-0.1228,-0.1231,-0.1248,0,0,-0.1238,-0.1239,0,0,0,0,0,0,0,0,-0.1066,-0.1071,-0.1125,-0.1127,-0.1129,-0.1161,-0.1151,-0.1191,-0.117,-0.1152,-0.117,-0.1169,-0.1208,-0.1212,-0.1217,-0.1251,-0.1253,-0.1238,-0.124,-0.1241,-0.1241,0,0,0,0,0,0,0,-0.1064,-0.1069,-0.1129,-0.1126,-0.1129,-0.113,-0.1135,-0.1159,-0.1178,-0.1154,-0.1155,-0.1164,-0.1209,-0.1214,-0.1218,-0.1254,-0.1238,-0.124,-0.1242,-0.1243,-0.1304,-0.1304,0,0,0,0,0,0,-0.1064,-0.1067,-0.1128,-0.1131,-0.11,-0.1132,-0.1137,-0.1149,-0.1178,-0.1183,-0.1164,-0.1165,-0.121,-0.1215,-0.122,-0.1271,-0.1241,-0.1243,-0.1244,-0.1304,-0.1304,-0.1304,0,0,0,0,0,0,-0.1062,-0.1069,-0.1126,-0.1102,-0.1109,-0.1134,-0.1147,-0.115,-0.1176,-0.1186,-0.1191,-0.1189,-0.121,-0.1217,-0.125,-0.1272,-0.1244,-0.1246,-0.1304,-0.1304,-0.1304,-0.1354,0,0,0,0,0,0,-0.1059,-0.1068,-0.1085,-0.1102,-0.1111,-0.1156,-0.1147,-0.1151,-0.1181,-0.1183,-0.1209,-0.1213,-0.1211,-0.1247,-0.1253,-0.1275,-0.1248,-0.1304,-0.1304,-0.1304,-0.1352,-0.1356,-0.1359,0,0,0,0,0,-0.1056,-0.1085,-0.1086,-0.1094,-0.1131,-0.1157,-0.1162,-0.1176,-0.1183,-0.1198,-0.1211,-0.1213,-0.1252,-0.1249,-0.1256,-0.128,-0.1303,-0.1304,-0.1304,-0.135,-0.1355,-0.1359,0,0,0,0,0,0,-0.1066,-0.1089,-0.109,-0.1127,-0.1144,-0.116,-0.1182,-0.1191,-0.1214,-0.1221,-0.1227,-0.1232,-0.1261,-0.1263,-0.126,-0.1293,-0.1274,-0.1276,-0.1307,-0.1311,-0.1315,-0.1318,-0.125,0,0,0,0,0,-0.1074,-0.1097,-0.1114,-0.1145,-0.1154,-0.1171,-0.1188,-0.1198,-0.1217,-0.1228,-0.1246,-0.1258,-0.1265,-0.1284,-0.1288,-0.1325,-0.1305,-0.1338,-0.1341,-0.1345,-0.1349,-0.1336,-0.134,-0.1306,-0.1306,-0.1306,0,0,-0.1087,-0.1104,-0.1118,-0.1148,-0.1162,-0.1182,-0.1181,-0.1214,-0.1234,-0.1232,-0.1272,-0.1274,-0.1274,-0.1299,-0.1313,-0.1311,-0.1341,-0.1345,-0.1348,-0.1351,-0.1337,-0.1341,-0.1344,-0.1306,-0.1306,-0.1306,0,0,-0.1113,-0.1138,-0.1157,-0.1174,-0.1201,-0.1211,-0.1225,-0.1252,-0.1266,-0.1298,-0.1293,-0.1313,-0.1336,-0.134,-0.1342,-0.1372,-0.1353,-0.1372,-0.1409,-0.1397,-0.14,-0.1402,-0.1372,-0.1371,-0.1384,-0.1384,-0.1384,0,-0.1125,-0.1153,-0.1169,-0.1189,-0.1209,-0.1226,-0.1248,-0.1267,-0.1303,-0.1316,-0.1314,-0.1341,-0.1351,-0.1375,-0.1383,-0.1383,-0.1363,-0.1397,-0.1402,-0.1404,-0.1406,-0.1375,-0.1374,-0.1386,-0.1386,-0.1386,-0.1385,0,-0.1152,-0.1182,-0.1199,-0.1224,-0.1248,-0.1277,-0.1297,-0.1326,-0.1344,-0.1356,-0.1385,-0.1392,-0.1406,-0.1413,-0.1412,-0.1434,-0.141,-0.1402,-0.1395,-0.1413,-0.1378,-0.1376,-0.139,-0.1389,-0.1388,-0.1387,0,0,-0.1151,-0.1205,-0.1211,-0.1226,-0.1271,-0.1289,-0.133,-0.136,-0.1381,-0.141,-0.1431,-0.1454,-0.1459,-0.1461,-0.1465,-0.1469,-0.1467,-0.145,-0.1449,-0.1426,-0.1425,-0.1314,-0.1301,-0.146,-0.1461,-0.1461,-0.1394,0,-0.1162,-0.1202,-0.1232,-0.1275,-0.1292,-0.1328,-0.1359,-0.1393,-0.1414,-0.144,-0.1453,-0.1469,-0.1476,-0.1485,-0.1492,-0.147,-0.1464,-0.1485,-0.1406,-0.1404,-0.1308,-0.1296,-0.1461,-0.1392,-0.1391,-0.1391,-0.139,0,-0.1164,-0.1194,-0.1234,-0.1287,-0.13,-0.1331,-0.1379,-0.1411,-0.1449,-0.1465,-0.1491,-0.1494,-0.1516,-0.1507,-0.1489,-0.1501,-0.1469,-0.1449,-0.1445,-0.1324,-0.1288,-0.1371,-0.1386,-0.1386,-0.1386,-0.1387,-0.1387,0,-0.1127,-0.1191,-0.1224,-0.1243,-0.1306,-0.1336,-0.1372,-0.1419,-0.144,-0.1482,-0.1489,-0.1513,-0.1511,-0.1496,-0.1461,-0.1475,-0.1415,-0.1423,-0.1291,-0.1282,-0.1383,-0.1382,-0.1396,-0.1397,-0.1397,-0.1397,-0.1397,0,-0.1107,-0.1135,-0.1212,-0.1225,-0.1265,-0.132,-0.1358,-0.1397,-0.1442,-0.1441,-0.1499,-0.1483,-0.1508,-0.1476,-0.1453,-0.135,-0.1403,-0.1285,-0.1255,-0.1403,-0.1404,-0.1381,-0.138,-0.1394,-0.1395,-0.1395,-0.1396,0,-0.1046,-0.1101,-0.1139,-0.1218,-0.1244,-0.1269,-0.1343,-0.1357,-0.1418,-0.1415,-0.1426,-0.1456,-0.1402,-0.14,-0.1354,-0.1312,-0.1246,-0.1195,-0.1337,-0.1318,-0.1126,-0.1128,-0.1043,-0.1038,-0.1034,-0.1031,-0.1029,0,-0.1011,-0.1027,-0.1116,-0.1134,-0.1171,-0.1223,-0.1245,-0.1328,-0.1331,-0.1367,-0.1339,-0.1325,-0.1319,-0.1169,-0.1191,-0.1122,-0.111,-0.1082,-0.1125,-0.1109,-0.1089,-0.1097,-0.1105,-0.1022,-0.1022,-0.102,-0.1019,0,-0.094,-0.0985,-0.1014,-0.1054,-0.1087,-0.1116,-0.1153,-0.1149,-0.1207,-0.128,-0.1206,-0.1172,-0.1101,-0.1069,-0.1018,-0.0979,-0.1111,-0.1042,-0.105,-0.1091,-0.1083,-0.1069,-0.1081,-0.1006,-0.1008,-0.1009,-0.101,0,-0.0884,-0.0887,-0.0931,-0.0952,-0.099,-0.0975,-0.102,-0.1009,-0.1029,-0.1078,-0.104,-0.103,-0.1062,-0.099,-0.0943,-0.0894,-0.0887,-0.0878,-0.0895,-0.091,-0.09,-0.0873,-0.0692,0,0,0,0,0,-0.082,-0.0808,-0.0822,-0.0829,-0.0859,-0.0875,-0.0932,-0.0977,-0.1036,-0.0945,-0.0992,-0.0918,-0.085,-0.0864,-0.078,-0.0879,-0.0891,-0.0781,-0.0891,-0.0932,-0.0948,-0.0949,0,0,0,0,0,0,-0.0774,-0.0783,-0.0784,-0.0716,-0.0694,-0.0704,-0.0735,-0.0781,-0.0748,-0.0818,-0.0786,-0.0849,-0.08,-0.0856,-0.075,-0.0752,-0.0801,-0.0794,-0.0791,-0.0924,-0.0938,-0.095,-0.0956,0,0,0,0,0]},{"header":{"parameterUnit":"m.s-1","parameterCategory":2,"la1":30.2991,"la2":30.254,"lo1":-89.0895,"lo2":-89.0444,"dy":0.0017,"dx":0.0017,"nx":28,"ny":28,"refTime":"2025-09-13T03:00:00:Z","depth":"4","parameterNumber":3,"parameterNumberName":"V-component_of_CURRENTS"},"data":[0,0,0,0,0,0,0,0,0,0,0,0,0,0,0,0,0,0,0,0,0,0,0,0,0,0,0,0,0,0,0,0,0,0,0,0,0,0,0,0,0,0,0,0,0,0,0,0,0,0,0,0,0,0,0,0,0,0,-0.0311,-0.0311,0,-0.03,-0.03,-0.03,-0.0307,-0.0307,-0.0308,-0.0308,-0.0272,-0.027,-0.0269,0,0,0,0,0,0,0,0,0,0,0,0,0,-0.0334,-0.0334,-0.0311,-0.0311,-0.0311,-0.03,-0.03,-0.03,-0.0307,-0.0307,-0.0308,-0.0308,-0.0272,-0.0271,-0.0269,0,0,0,0,0,0,0,0,0,0,0,0,0,-0.0325,-0.0334,-0.0311,-0.0312,-0.0312,-0.03,-0.03,-0.03,-0.0307,-0.0307,-0.0308,-0.0308,-0.0272,-0.0271,-0.0269,-0.0252,0,0,-0.0264,-0.0263,0,0,0,0,0,0,0,0,-0.0326,-0.0325,-0.0312,-0.0312,-0.0312,-0.0304,-0.0294,-0.0282,-0.0307,-0.031,-0.0308,-0.0308,-0.0279,-0.0277,-0.0276,-0.025,-0.0249,-0.0264,-0.0263,-0.0262,-0.0261,0,0,0,0,0,0,0,-0.0326,-0.0325,-0.0308,-0.0312,-0.0311,-0.0311,-0.031,-0.0292,-0.0294,-0.031,-0.031,-0.0306,-0.0279,-0.0278,-0.0275,-0.0248,-0.0264,-0.0262,-0.0261,-0.026,-0.0214,-0.0214,0,0,0,0,0,0,-0.0325,-0.0326,-0.0309,-0.0308,-0.0318,-0.031,-0.0309,-0.0307,-0.0294,-0.0293,-0.0306,-0.0307,-0.0281,-0.0277,-0.0274,-0.0247,-0.0262,-0.026,-0.0259,-0.0214,-0.0214,-0.0214,0,0,0,0,0,0,-0.0325,-0.0323,-0.0309,-0.0315,-0.0313,-0.0309,-0.0307,-0.0307,-0.0309,-0.0291,-0.029,-0.0309,-0.0281,-0.0276,-0.0265,-0.0246,-0.0259,-0.0258,-0.0214,-0.0214,-0.0214,-0.0196,0,0,0,0,0,0,-0.0326,-0.0324,-0.0329,-0.0315,-0.0313,-0.0301,-0.0306,-0.0306,-0.0305,-0.0306,-0.0293,-0.029,-0.0281,-0.0268,-0.0263,-0.0244,-0.0256,-0.0215,-0.0214,-0.0214,-0.0197,-0.0195,-0.0194,0,0,0,0,0,-0.0327,-0.0326,-0.0329,-0.0327,-0.0317,-0.0301,-0.03,-0.0299,-0.0305,-0.0303,-0.03,-0.029,-0.0262,-0.0267,-0.0261,-0.024,-0.0215,-0.0214,-0.0214,-0.0198,-0.0196,-0.0194,0,0,0,0,0,0,-0.0333,-0.0326,-0.0329,-0.0325,-0.0315,-0.0302,-0.03,-0.03,-0.0297,-0.03,-0.0289,-0.0285,-0.027,-0.0261,-0.0266,-0.0228,-0.0236,-0.0235,-0.0225,-0.0223,-0.0222,-0.0211,-0.0255,0,0,0,0,0,-0.0338,-0.0339,-0.0327,-0.0324,-0.0319,-0.0312,-0.0308,-0.0306,-0.0298,-0.0297,-0.0286,-0.0276,-0.0263,-0.0249,-0.0241,-0.0215,-0.0195,-0.02,-0.0198,-0.0197,-0.0186,-0.014,-0.0132,-0.0212,-0.0212,-0.0212,0,0,-0.034,-0.0335,-0.0337,-0.0326,-0.032,-0.0311,-0.0311,-0.0302,-0.0295,-0.0292,-0.0281,-0.0274,-0.0259,-0.0237,-0.0228,-0.0225,-0.0165,-0.0196,-0.0195,-0.0184,-0.0138,-0.013,-0.0123,-0.0212,-0.0212,-0.0212,0,0,-0.0339,-0.0339,-0.034,-0.0332,-0.0321,-0.0314,-0.0311,-0.0298,-0.0293,-0.0284,-0.0278,-0.0254,-0.0244,-0.0214,-0.0202,-0.0183,-0.0166,-0.0189,-0.0159,-0.0115,-0.0107,-0.01,-0.0071,-0.0062,-0.0178,-0.0178,-0.0178,0,-0.0344,-0.0342,-0.0336,-0.0329,-0.0324,-0.0314,-0.0309,-0.0297,-0.0283,-0.027,-0.0282,-0.0244,-0.0226,-0.018,-0.0175,-0.0175,-0.0161,-0.0166,-0.0111,-0.0103,-0.0097,-0.0068,-0.0058,-0.0177,-0.0177,-0.0178,-0.0178,0,-0.0341,-0.0341,-0.0336,-0.033,-0.0321,-0.0314,-0.0295,-0.0284,-0.0281,-0.0266,-0.0234,-0.021,-0.0184,-0.0171,-0.0167,-0.0107,-0.0117,-0.0121,-0.0112,-0.0087,-0.0059,-0.0049,-0.0176,-0.0176,-0.0177,-0.0177,0,0,-0.0349,-0.0339,-0.034,-0.0342,-0.0323,-0.0317,-0.0295,-0.027,-0.0256,-0.0232,-0.0206,-0.0163,-0.0148,-0.0133,-0.0113,-0.0062,-0.0,-0.0071,-0.0069,-0.0035,0.0085,0.0055,0.0063,0.0,0.0002,0.0004,0.0083,0,-0.0352,-0.0352,-0.034,-0.0337,-0.0336,-0.0315,-0.0298,-0.0272,-0.0252,-0.0223,-0.0173,-0.015,-0.0134,-0.0124,-0.0067,-0.0028,0.0028,-0.0022,0.005,0.0053,0.0029,0.0075,0.001,0.009,0.0093,0.0094,0.0096,0,-0.0355,-0.0357,-0.036,-0.035,-0.0347,-0.0342,-0.0316,-0.0298,-0.0243,-0.0226,-0.0176,-0.0151,-0.0074,-0.0073,0.0039,-0.0,0.005,0.0088,0.0092,0.0069,0.0043,0.0062,0.0114,0.0113,0.0112,0.011,0.0109,0,-0.0376,-0.0369,-0.0378,-0.0375,-0.0359,-0.0355,-0.0346,-0.0303,-0.0286,-0.0228,-0.0214,-0.0127,-0.0094,-0.0013,0.0063,0.0051,0.0178,0.017,0.0199,0.0197,0.0191,0.0183,0.0268,0.0267,0.0267,0.0267,0.0267,0,-0.0382,-0.0389,-0.0394,-0.04,-0.0411,-0.0386,-0.0383,-0.0356,-0.0312,-0.0289,-0.0223,-0.0186,-0.0078,-0.0,0.0072,0.0163,0.0188,0.022,0.0225,0.0193,0.0185,0.0198,0.0189,0.027,0.0269,0.0269,0.0268,0,-0.0399,-0.0401,-0.0416,-0.0418,-0.0424,-0.0435,-0.0426,-0.0416,-0.0371,-0.0338,-0.0322,-0.0222,-0.0123,-0.0017,0.0118,0.0165,0.0258,0.0288,0.0244,0.0241,0.0246,0.0237,0.0333,0.0333,0.0333,0.0333,0.0333,0,-0.0405,-0.0417,-0.0446,-0.0467,-0.0473,-0.0486,-0.0493,-0.0456,-0.0441,-0.0361,-0.0345,-0.024,-0.0168,-0.0004,0.0112,0.0255,0.0271,0.0315,0.0296,0.0263,0.0258,0.0249,0.024,0.0332,0.0332,0.0332,0.0332,0,-0.0419,-0.0438,-0.0456,-0.0504,-0.0528,-0.0545,-0.0549,-0.0542,-0.0488,-0.0449,-0.0366,-0.0266,-0.0149,-0.0014,0.0098,0.0201,0.0282,0.0314,0.0315,0.0298,0.0263,0.0256,0.0247,0.0332,0.0332,0.0332,0.0332,0,-0.0435,-0.046,-0.0494,-0.053,-0.0569,-0.059,-0.0588,-0.0563,-0.0539,-0.0447,-0.042,-0.0282,-0.0192,-0.004,0.0065,0.016,0.0183,0.0201,0.0208,0.021,0.0146,0.0082,0.0117,0,0,0,0,0,-0.0443,-0.0473,-0.0515,-0.0556,-0.0596,-0.0611,-0.0615,-0.0601,-0.0553,-0.0509,-0.0462,-0.0353,-0.018,-0.0093,-0.0003,0.0062,0.0198,0.0169,0.022,0.0329,0.033,0.0273,0,0,0,0,0,0,-0.045,-0.0493,-0.0515,-0.0568,-0.0598,-0.0632,-0.0635,-0.0605,-0.0571,-0.0512,-0.0422,-0.0348,-0.0181,-0.0237,-0.0008,0.0027,0.0067,0.0261,0.0263,0.0329,0.0329,0.033,0.0271,0,0,0,0,0]}]]